This is the latest recevied weather packets stored in our database for station/object KD8FRE. If no packets are shown the sender has not sent any weather packets the latest 10 day(s).
| Time | Temp. | Humidity | Pressure | Rain* | Wind** | Luminosity | Snow |
|---|---|---|---|---|---|---|---|
| 1778009883 | 12.22° C | 59% | 1008.1 hPa | 0 mm | - | 109 W/m² | - |
| 1778009581 | 12.22° C | 58% | 1008 hPa | 0 mm | - | 100 W/m² | - |
| 1778009279 | 12.22° C | 58% | 1008.1 hPa | 0 mm | - | 90 W/m² | - |
| 1778008977 | 12.22° C | 59% | 1008.1 hPa | 0 mm | - | 103 W/m² | - |
| 1778008674 | 12.22° C | 59% | 1008.1 hPa | 0 mm | - | 108 W/m² | - |
| 1778008372 | 12.22° C | 60% | 1008.2 hPa | 0 mm | - | 143 W/m² | - |
| 1778008068 | 12.22° C | 59% | 1008 hPa | 0 mm | - | 143 W/m² | - |
| 1778007763 | 12.22° C | 58% | 1008.1 hPa | 0 mm | - | 100 W/m² | - |
| 1778007460 | 12.22° C | 58% | 1008.1 hPa | 0 mm | - | 91 W/m² | - |
| 1778007157 | 12.22° C | 58% | 1008.2 hPa | 0 mm | - | 94 W/m² | - |
| 1778006853 | 12.22° C | 57% | 1008.1 hPa | 0 mm | - | 103 W/m² | - |
| 1778006551 | 12.22° C | 58% | 1007.9 hPa | 0 mm | - | 124 W/m² | - |
| 1778006247 | 12.22° C | 57% | 1008 hPa | 0 mm | - | 108 W/m² | - |
| 1778005944 | 12.22° C | 55% | 1007.8 hPa | 0 mm | - | 140 W/m² | - |
| 1778005641 | 12.22° C | 55% | 1007.8 hPa | 0 mm | - | 150 W/m² | - |
| 1778005338 | 12.22° C | 54% | 1007.8 hPa | 0 mm | - | 184 W/m² | - |
| 1778005034 | 12.22° C | 52% | 1007.6 hPa | 0 mm | - | 267 W/m² | - |
| 1778004732 | 12.22° C | 53% | 1007.4 hPa | 0 mm | - | 221 W/m² | - |
| 1778004428 | 12.22° C | 54% | 1007.4 hPa | 0 mm | - | 265 W/m² | - |
| 1778004125 | 12.22° C | 55% | 1007.2 hPa | 0 mm | - | 236 W/m² | - |
| 1778003821 | 12.22° C | 56% | 1007.1 hPa | 0 mm | - | 252 W/m² | - |
| 1778003517 | 12.22° C | 56% | 1007.3 hPa | 0 mm | - | 273 W/m² | - |
| 1778003214 | 12.22° C | 55% | 1007.3 hPa | 0 mm | - | 275 W/m² | - |
| 1778002910 | 12.22° C | 56% | 1007.1 hPa | 0 mm | - | 231 W/m² | - |
| 1778002607 | 11.67° C | 60% | 1007.1 hPa | 0 mm | - | 198 W/m² | - |
* Rain latest hour (hover to see other rain measurements)
** Current wind speed in m/s (hover to see current wind gust speed)